Regional Weather Roundup
Issued by NWS Portland, ME

Home | Current Version | Previous Version | Text Only | Print | Product List | Glossary On
Versions: 1 2 3 4 5 6 7 8 9 10 11 12 13 14 15 16 17 18 19 20 21 22 23 24 25 26 27 28 29 30 31 32 33 34 35 36 37 38 39 40 41 42 43 44 45 46 47 48 49 50
000
ASUS41 KGYX 041310
RWRGYX
WEATHER ROUNDUP FOR MAINE AND NEW HAMPSHIRE
NATIONAL WEATHER SERVICE GRAY ME
900 AM EDT SAT JUL 04 2015

MEZ002-005-006-010-012-015-018-020-021-024-026-027-029-041400-
MAINE

CITY           SKY/WX    TMP DP  RH WIND       PRES   REMARKS
PORTLAND       CLOUDY    65  57  75 CALM      30.00R
SANFORD        CLOUDY    63  54  72 CALM      30.01R
BAR HARBOR     MOSUNNY   68  63  83 CALM      30.01R
WISCASSET      PTSUNNY   66  58  75 S3        30.01R
ROCKLAND       MOSUNNY   66  57  72 CALM      29.99S
FRYEBURG       PTSUNNY   62  54  74 CALM      30.01S
LEWISTONAUBURN CLOUDY    63  54  72 CALM      30.00S
AUGUSTA        PTSUNNY   67  56  67 NE3       30.00S
WATERVILLE       N/A    N/A N/A N/A MISG        N/A
BANGOR         MOSUNNY   68  53  58 CALM      30.01S
GREENVILLE       N/A     65  47  52 CALM      29.99S
MILLINOCKET    PTSUNNY   71  53  52 CALM      30.00S
HOULTON        PTSUNNY   66  52  60 SW7       29.98R
PRESQUE ISLE   MOSUNNY   64  50  59 CALM      29.97S
FRENCHVILLE    SUNNY     62  53  72 SW5       29.96R
CARIBOU        SUNNY     65  52  62 W5        29.96R
$$

NHZ002-005-008-009-011-012-014-041400-
NEW HAMPSHIRE

CITY           SKY/WX    TMP DP  RH WIND       PRES   REMARKS
PORTSMOUTH     CLOUDY    63  57  82 SW2       29.99R
ROCHESTER      CLOUDY    62  56  80 CALM      30.00R
NASHUA         CLOUDY    62  58  87 CALM      30.01S
MANCHESTER     CLOUDY    64  55  72 CALM      29.99R
CONCORD        CLOUDY    61  54  77 NW3       30.01R
LACONIA        CLOUDY    63  54  72 CALM      30.00R
PLYMOUTH       FAIR      58  56  94 CALM      30.01S
BERLIN         PTSUNNY   60  51  72 N5        30.01F
WHITEFIELD     PTSUNNY   61  51  70 NW3       30.02R
JAFFREY        CLOUDY    64  56  75 W3        30.01S
KEENE          CLOUDY    57  52  82 CALM      30.01S
LEBANON        MOSUNNY   57  52  83 CALM      30.01R
MT WASHINGTON  PTSUNNY   46  39  76 S10         N/A
$$

VTZ005-007-008-041400-
VERMONT

CITY           SKY/WX    TMP DP  RH WIND       PRES   REMARKS
ST JOHNSBURY     N/A     58  50  75 MISG      30.00S
MONTPELIER     PTSUNNY   58  53  84 CALM      30.04R
BURLINGTON     CLOUDY    63  55  75 E3        29.96S
$$

MAZ007-012-024-CTZ003-RIZ002-NYZ038-NYZ072-041400-
SOUTHERN NEW ENGLAND AND NY

CITY           SKY/WX    TMP DP  RH WIND       PRES   REMARKS
BOSTON         CLOUDY    66  62  87 SE5       30.00S
WORCESTER      CLOUDY    65  54  67 SW6       30.01S
NANTUCKET      CLOUDY    67  54  63 E7        30.01R
PROVIDENCE     CLOUDY    69  61  75 SE3       30.00S
HARTFORD       CLOUDY    63  56  78 N3        29.98S
ALBANY         CLOUDY    63  56  78 CALM      29.97S
NEW YORK CITY  CLOUDY    70  62  76 NE8       29.94S
$$

ANZ081-ANZ082-ANZ150-NHZ014-MEZ023>029-041400-
COASTAL MARINE OBSERVATIONS

STATION/POSITION TIME  TEMP    WIND        PRES    WAVE
                       AIR SEA DIR/SP/G            HT/PER
                 (UTC) (F)     (DEG/KT/KT) (MB)    (FT/S)
MOUNT DESERT ROC 1300   57     240/  4/  4 1016.4R
MATINICUS ROCK   1300   57     220/  8/  8 1015.9R
ISLE OF SHOALS   1300   61     220/  3/  4 1015.3R
JEFFREYS LEDGE   1203      58                N/A     3/ 8
CASHES LEDGE BUO 1250   60 57              1016.2R   4/ 8
GEORGES BANK BUO 1250   56 58   50/  6/  6 1017.0R   6/ 9
$$

.............KEY..............
   WCI - WIND CHILL
   TC  - TEMPERATURE IN CELSIUS
   VSB - VISIBILITY IN MILES
   HX  - HEAT INDEX
   FAIR- INDICATES FEW OR NO CLOUDS BELOW 12,000 FT, WITH NO
         SIGNIFICANT WEATHER AND/OR OBSTRUCTIONS TO VISIBILITY.




USA.gov is the U.S. government's official web portal to all federal, state and local government web resources and services.